Home > Weather > Kalisz > Past weeks

Flag for Poland Weather for the Past 2 Weeks in Kalisz, Poland

Now
35 °F

Fog.


Feels Like: 35 °F
Forecast: 32 / 47 °F
Wind: 2 mph from Northeast

Location: Kalisz

Current Time: Feb 13, 2016 at 6:29:37 PM

Latest Report: Feb 13, 2016 at 5:00 PM


Visibility: 1 mi

Pressure: 29.41 "Hg

Humidity: 97%

Dew point: 35 °F

Location of KaliszLocation

Historic Weather in Kalisz — Graph

°F

Kalisz Temperature Yesterday

Maximum temperature yesterday: 44 °F (at 2:00 PM)
Minimum temperature yesterday: 33 °F (at 7:00 AM)
Average temperature yesterday: 38 °F

High & Low Weather Summary for the Past Weeks

 TemperatureHumidityPressure
High54 °F (Feb 2, 1:00 PM)100% (Feb 1, 7:00 PM)30.27 "Hg (Feb 1, 7:00 PM)
Low32 °F (Feb 13, 6:00 AM)55% (Feb 8, 2:00 PM)29.18 "Hg (Feb 10, 3:00 AM)
Average41 °F81%29.75 "Hg
* Reported Jan 29 5:00 PM — Feb 13 5:00 PM, Kalisz, Weather by CustomWeather, © 2016

Note: Actual official high and low records may vary slightly from our data, if they occured in-between our weather recording intervals... More about our weather records

Advertising

Kalisz Weather History for the Previous 24 Hours

 ConditionsComfort  
Time TempWeatherWind HumidityBarometerVisibility
5:00 PM
Sat, Feb 13
35 °FFog.2 mph97%29.41 "Hg1 mi
4:00 PM35 °FFog.3 mph97%29.41 "Hg1 mi
3:00 PM35 °FFog.5 mph96%29.41 "Hg2 mi
2:00 PM35 °FFog.2 mph97%29.44 "Hg2 mi
1:00 PM35 °FFog.2 mph97%29.44 "Hg1 mi
12:00 PM34 °FFog.3 mph98%29.47 "Hg2 mi
11:00 AM34 °FFog.2 mph98%29.47 "Hg1 mi
10:00 AM33 °FFog.3 mph96%29.47 "Hg1 mi
9:00 AM33 °FFog.2 mph100%29.50 "Hg2 mi
8:00 AM32 °FFog.2 mph100%29.50 "Hg1 mi
7:00 AM32 °FFog.2 mph100%29.50 "Hg1 mi
6:00 AM32 °FFog.3 mph99%29.53 "Hg1 mi
5:00 AM33 °FFog.2 mph99%29.54 "Hg2 mi
1:00 AM33 °FFog.3 mph97%29.58 "Hg2 mi
11:00 PM
Fri, Feb 12
34 °FFog.2 mph93%29.60 "Hg2 mi
10:00 PM35 °FFog.3 mph91%29.61 "Hg3 mi
9:00 PM35 °FFog.3 mph87%29.62 "Hg2 mi
8:00 PM37 °FFog.2 mph82%29.62 "Hg2 mi
7:00 PM38 °FFog.2 mph79%29.64 "Hg2 mi
6:00 PM39 °FPassing clouds.2 mph75%29.65 "Hg6 mi
Weather by CustomWeather, © 2016

See weather overviewHow to use our weather pages